Pecs, Hungary

6:11 PM CET on February 25, 2017 (GMT +0100)
Pecs

Weather History for LHPP - November, 2012

Change the Weather History Date:

Sunday, November 4, 2012

  Actual Average Record
Temperature  
Mean Temperature 56 °F -  
Max Temperature 67 °F 47 °F - ()
Min Temperature 45 °F 35 °F - ()
Degree Days  
Heating Degree Days 9    
Growing Degree Days 6 (Base 50)    
Moisture  
Dew Point 49 °F    
Average Humidity 72    
Maximum Humidity 93    
Minimum Humidity 48    
Precipitation  
Precipitation 0.00 in 0.07 in - ()
Sea Level Pressure  
Sea Level Pressure 29.87 in    
Wind  
Wind Speed 8 mph ()    
Max Wind Speed 14 mph    
Max Gust Speed -    
Visibility 16.0 miles    
Events      
T = Trace of Precipitation, MM = Missing Value Source: Averaged Metar Reports

Daily Weather History Graph

Daily Weather History Graph

Search for Another Location

Airport or City:

Trip Planner

Search our weather history database for the weather conditions in past years. The results will help you decide how hot, cold, wet, or windy it might be!

Date:

Astronomy

Nov. 04, 2012 Rise Set
Actual Time 6:32 AM CET 4:28 PM CET
Civil Twilight 6:00 AM CET 4:59 PM CET
Nautical Twilight 5:25 AM CET 5:35 PM CET
Astronomical Twilight 4:50 AM CET 6:10 PM CET
Moon 8:45 PM CET (11/4) 11:08 AM CET (11/4)
Length of Visible Light 10h 59m
Length of Day
9h 56m
Waning Gibbous, 74% of the Moon is Illuminated
Nov 4
Waning Gibbous
Nov 7
Last Quarter
Nov 13
New
Nov 20
First Quarter
Nov 28
Full

Hourly Weather History & Observations

Time (CET) Temp. Windchill Dew Point Humidity Pressure Visibility Wind Dir Wind Speed Gust Speed Precip Events Conditions
12:45 AM 50.0 °F - 46.4 °F 87% 29.92 in - SW 8.1 mph - N/A   Clear
1:00 AM 51 °F - 47 °F 82% 29.94 in 16 mi SW 8.9 mph - -   Partly Cloudy
1:45 AM 50.0 °F - 46.4 °F 87% 29.92 in - SW 8.1 mph - N/A   Clear
2:45 AM 48.2 °F - 44.6 °F 87% 29.92 in - SW 5.8 mph - N/A   Clear
3:45 AM 46.4 °F 43.5 °F 44.6 °F 93% 29.92 in - South 5.8 mph - N/A   Clear
4:45 AM 48.2 °F - 44.6 °F 87% 29.92 in - SSW 4.6 mph - N/A   Clear
5:15 AM 48.2 °F - 44.6 °F 87% 29.92 in - SSW 5.8 mph - N/A   Clear
5:45 AM 48.2 °F - 44.6 °F 87% 29.92 in - South 4.6 mph - N/A   Clear
6:00 AM - - - N/A% - - South 5.8 mph - N/A   Clear
6:15 AM 48.2 °F - 44.6 °F 87% 29.92 in - South 4.6 mph - N/A   Clear
6:45 AM 48.2 °F - 44.6 °F 87% 29.92 in - SSW 6.9 mph - N/A   Clear
7:00 AM 48 °F - 44 °F 81% 29.92 in 22 mi SSW 6.7 mph - -   Partly Cloudy
7:15 AM 48.2 °F - 44.6 °F 87% 29.92 in - South 5.8 mph - N/A   Clear
7:45 AM 53.6 °F - 48.2 °F 82% 29.92 in - SSW 9.2 mph - N/A   Clear
8:15 AM 57.2 °F - 48.2 °F 72% 29.92 in - SSW 10.4 mph - N/A   Clear
8:45 AM 57.2 °F - 48.2 °F 72% 29.92 in - SSW 9.2 mph - N/A   Clear
9:00 AM - - - N/A% - - SSW 11.5 mph - N/A   Clear
9:15 AM 59.0 °F - 48.2 °F 67% 29.92 in - SSW 11.5 mph - N/A   Clear
9:45 AM 60.8 °F - 48.2 °F 63% 29.92 in - SSW 12.7 mph - N/A   Clear
10:15 AM 62.6 °F - 48.2 °F 59% 29.92 in - South 12.7 mph - N/A   Clear
10:45 AM 62.6 °F - 48.2 °F 59% 29.92 in - South 11.5 mph - N/A   Clear
11:15 AM 64.4 °F - 48.2 °F 56% 29.92 in - South 10.4 mph - N/A   Clear
11:45 AM 64.4 °F - 48.2 °F 56% 29.89 in - South 12.7 mph - N/A   Clear
12:00 PM - - - N/A% - - South 12.7 mph - N/A   Clear
12:15 PM 66.2 °F - 50.0 °F 56% 29.89 in - South 11.5 mph - N/A   Clear
12:45 PM 66.2 °F - 51.8 °F 60% 29.89 in - South 10.4 mph - N/A   Clear
1:00 PM 67 °F - 52 °F 48% 29.86 in 31 mi South 11.2 mph - -   Partly Cloudy
1:15 PM 66.2 °F - 50.0 °F 56% 29.86 in - South 11.5 mph - N/A   Clear
1:45 PM 66.2 °F - 48.2 °F 52% 29.86 in - South 13.8 mph - N/A   Clear
2:15 PM 64.4 °F - 51.8 °F 64% 29.86 in - South 8.1 mph - N/A   Clear
2:45 PM 66.2 °F - 48.2 °F 52% 29.86 in - South 9.2 mph - N/A   Clear
3:00 PM - - - N/A% - - South 10.4 mph - N/A   Clear
3:15 PM 62.6 °F - 50.0 °F 63% 29.86 in - SSE 9.2 mph - N/A   Clear
3:45 PM 60.8 °F - 50.0 °F 68% 29.83 in - SSE 6.9 mph - N/A   Clear
4:15 PM 60.8 °F - 50.0 °F 68% 29.83 in - SSE 8.1 mph - N/A   Clear
4:45 PM 59.0 °F - 50.0 °F 72% 29.83 in - SSE 5.8 mph - N/A   Clear
5:15 PM 59.0 °F - 50.0 °F 72% 29.83 in - SSE 5.8 mph - N/A   Clear
5:45 PM 59.0 °F - 50.0 °F 72% 29.83 in - SE 6.9 mph - N/A   Clear
6:15 PM 59.0 °F - 51.8 °F 77% 29.83 in - SSE 6.9 mph - N/A   Clear
6:45 PM 60.8 °F - 51.8 °F 72% 29.80 in - SSE 8.1 mph - N/A   Clear
7:00 PM 60 °F - 52 °F 66% 29.80 in 31 mi SSE 8.9 mph - -   Partly Cloudy
7:15 PM 59.0 °F - 51.8 °F 77% 29.80 in - SSE 8.1 mph - N/A   Clear
7:45 PM 59.0 °F - 51.8 °F 77% 29.80 in - SE 5.8 mph - N/A   Clear
8:45 PM 59.0 °F - 50.0 °F 72% 29.77 in - SSE 8.1 mph - N/A   Clear
9:45 PM 57.2 °F - 50.0 °F 77% 29.77 in - SSE 5.8 mph - N/A   Clear
10:45 PM 57.2 °F - 50.0 °F 77% 29.74 in - SSE 5.8 mph - N/A   Clear
11:45 PM 57.2 °F - 50.0 °F 77% 29.71 in - SSE 9.2 mph - N/A   Clear